Snowfall_Accumulation
0.0 0.0 0.0 0.0 0.0 0.0 0.0 0.0 0.3 0.7 0.0 0.0 0.0 0.0 0.0 0.0 0.0 0.0 0.0 nan nan nan nan nan nan nan nan nan nan nan nan nan nan nan nan nan nan nan
0.0 0.0 0.0 0.0 0.0 0.0 0.0 0.0 0.0 0.0 0.1 0.0 0.0 0.0 0.0 0.0 0.0 0.0 0.0 nan nan nan nan nan nan nan nan nan nan nan nan nan nan nan nan nan nan nan
0.0 0.0 0.0 0.0 0.0 0.0 0.0 0.0 0.0 0.0 0.0 0.0 0.0 0.0 0.0 0.0 0.0 0.0 0.0 0.0 0.0 nan nan nan nan nan nan nan nan nan nan nan nan nan nan nan nan nan
0.0 0.0 0.0 0.0 0.0 0.0 0.0 0.0 0.0 0.0 0.0 0.0 0.0 0.0 0.0 0.0 0.0 0.0 0.0 0.0 0.0 nan nan nan nan nan nan nan nan nan nan nan nan nan nan nan nan nan
0.0 0.0 0.0 0.0 0.0 0.0 0.0 0.0 0.0 0.0 0.0 0.0 0.0 0.0 0.0 0.0 0.0 0.0 0.0 0.0 0.0 nan nan nan nan nan nan nan nan nan nan nan nan nan nan nan nan nan
0.0 0.0 0.0 0.0 0.0 0.0 0.0 0.0 0.0 0.0 0.0 0.0 0.0 0.0 0.0 0.0 0.0 0.0 0.0 0.0 0.0 0.0 nan nan nan nan nan nan nan nan nan nan nan nan nan nan nan nan
0.0 0.0 0.0 nan nan nan 0.0 0.0 0.0 0.0 0.0 0.0 0.0 0.0 0.0 0.0 0.0 0.0 0.0 0.0 0.0 0.0 0.0 0.0 0.0 0.0 0.0 nan nan nan nan nan nan nan nan nan nan nan
0.0 0.0 0.0 0.0 0.0 nan nan nan nan 0.0 0.0 0.2 0.0 0.0 0.0 0.0 0.0 0.0 0.0 0.0 0.1 0.0 0.0 0.1 0.0 0.0 0.0 0.0 nan nan nan nan nan nan nan nan nan nan
0.0 0.0 0.0 0.0 nan 0.0 nan nan nan nan 0.0 0.0 0.0 0.0 0.0 0.0 0.0 0.0 0.0 0.1 0.0 0.0 0.1 0.2 0.1 0.1 0.0 0.0 nan nan nan nan nan nan nan nan nan nan
0.0 0.0 0.0 0.0 0.0 0.0 0.0 0.0 0.0 0.0 0.0 0.0 0.0 0.0 0.0 0.0 0.0 0.0 0.0 0.0 0.1 0.0 0.0 1.0 0.2 0.3 0.1 0.0 nan nan nan nan nan nan nan nan nan nan
0.0 0.0 0.0 0.0 nan nan 0.0 0.0 0.0 0.0 nan nan nan nan nan nan nan 0.5 0.7 1.0 2.1 0.1 0.0 0.3 0.4 0.4 0.3 0.2 0.2 nan nan nan nan nan nan nan nan nan
0.0 0.0 nan 0.0 nan nan 0.1 0.1 0.1 0.0 0.0 0.0 0.0 0.0 nan nan nan 0.0 0.3 1.7 1.4 1.1 0.1 1.0 0.1 0.5 1.2 0.3 0.3 0.2 0.2 nan nan nan nan nan nan 0.0
0.4 0.3 0.2 nan nan nan nan 0.1 0.2 0.0 0.0 0.1 0.0 0.0 0.0 0.0 0.0 0.0 0.0 0.2 0.9 0.5 0.0 1.1 0.5 0.4 0.8 0.7 0.4 0.4 0.3 0.4 0.3 0.3 nan nan nan 0.0
0.3 0.4 0.5 nan nan nan 0.3 nan nan 0.2 2.2 2.1 1.6 1.0 0.8 0.7 0.1 0.1 0.0 0.0 0.0 0.1 0.1 0.0 1.8 0.6 0.7 0.9 0.7 0.4 0.4 0.5 0.5 0.5 0.6 nan nan nan
1.0 0.8 nan nan nan 0.2 nan nan 0.0 2.5 3.5 4.8 2.3 1.1 0.6 0.2 0.0 0.3 0.0 0.0 0.0 0.1 0.0 0.1 0.8 0.1 0.5 0.9 0.9 0.7 0.8 0.5 0.7 0.9 1.2 1.0 1.1 0.7
0.1 0.9 0.0 0.8 0.0 0.3 0.7 1.0 1.4 2.0 2.7 2.7 1.6 0.7 0.6 1.0 1.2 0.8 1.2 1.2 1.9 1.5 0.1 0.1 0.1 0.1 1.2 0.5 0.5 0.9 0.7 2.0 0.8 0.8 1.2 2.4 1.6 2.0
1.8 2.8 1.7 1.4 1.4 1.0 1.1 1.2 1.2 1.4 2.3 2.7 2.9 2.0 1.7 1.5 1.8 1.2 1.3 1.3 2.6 1.3 1.0 0.9 0.1 0.1 0.4 0.2 2.6 0.6 0.7 0.7 0.6 2.8 1.5 2.1 2.1 3.1
2.6 3.3 6.2 6.7 3.7 1.5 2.2 1.9 1.8 1.7 1.7 2.2 3.3 2.3 2.4 3.0 2.3 1.8 1.5 1.8 2.1 1.3 1.1 0.6 1.4 1.5 1.1 1.1 1.1 1.4 0.5 0.7 0.6 0.6 1.1 3.3 2.7 4.6
4.8 3.5 7.7 8.5 4.2 1.6 1.9 2.1 3.2 2.7 1.0 2.7 3.3 3.7 3.6 2.8 3.5 2.7 3.1 2.5 2.7 1.3 0.8 1.1 1.4 2.2 2.9 5.9 1.6 nan 2.4 0.9 1.9 2.2 1.3 2.4 4.5 3.1
1.9 3.4 4.9 5.0 2.3 1.8 1.7 2.3 2.8 4.2 4.3 3.2 4.6 6.6 7.7 5.3 5.0 3.3 2.7 4.4 2.5 1.2 1.0 0.5 0.8 1.1 3.1 9.5 10.7 4.9 nan 6.4 3.6 4.0 2.5 1.6 1.1 nan
2.4 2.1 4.1 3.0 3.2 2.6 7.7 9.3 12.4 11.1 11.1 14.1 8.1 8.0 15.0 4.0 4.7 3.2 3.6 2.9 2.4 1.1 1.1 1.0 0.9 0.0 1.0 2.7 16.5 6.2 4.4 nan 1.5 1.8 1.6 2.4 1.5 0.9
5.2 3.4 3.2 3.4 5.1 4.9 10.3 17.0 15.0 14.4 10.3 7.7 13.8 18.9 16.8 7.3 6.8 5.9 7.3 7.0 2.2 2.5 1.2 0.8 0.5 0.4 1.4 1.8 2.9 8.4 2.9 2.8 nan nan nan nan 3.1 4.8
9.4 4.1 6.0 7.6 6.4 7.6 4.6 9.3 4.3 18.2 7.6 8.0 7.5 7.5 31.4 11.1 5.1 5.4 6.3 4.0 2.5 2.6 1.6 1.6 0.8 0.6 1.0 0.9 1.5 3.5 2.4 4.6 1.8 1.7 4.0 nan nan nan
Water_Equivalent
0.00 0.00 0.00 0.00 0.00 0.00 0.00 0.00 0.09 0.15 0.01 0.00 0.00 0.00 0.00 0.00 0.00 0.00 0.00 nan nan nan nan nan nan nan nan nan nan nan nan nan nan nan nan nan nan nan
0.00 0.00 0.00 0.00 0.00 0.00 0.00 0.00 0.00 0.01 0.03 0.00 0.00 0.00 0.00 0.00 0.00 0.00 0.00 nan nan nan nan nan nan nan nan nan nan nan nan nan nan nan nan nan nan nan
0.00 0.00 0.00 0.00 0.00 0.00 0.00 0.00 0.00 0.00 0.00 0.00 0.00 0.00 0.00 0.00 0.00 0.00 0.00 0.00 0.00 nan nan nan nan nan nan nan nan nan nan nan nan nan nan nan nan nan
0.00 0.00 0.00 0.00 0.00 0.00 0.00 0.00 0.00 0.00 0.00 0.00 0.00 0.00 0.00 0.00 0.00 0.00 0.00 0.00 0.00 nan nan nan nan nan nan nan nan nan nan nan nan nan nan nan nan nan
0.00 0.00 0.00 0.00 0.00 0.00 0.00 0.00 0.00 0.00 0.00 0.00 0.00 0.00 0.00 0.00 0.00 0.00 0.00 0.00 0.00 nan nan nan nan nan nan nan nan nan nan nan nan nan nan nan nan nan
0.00 0.00 0.00 0.00 0.00 0.00 0.00 0.00 0.00 0.00 0.00 0.00 0.00 0.00 0.00 0.00 0.00 0.00 0.00 0.00 0.00 0.00 nan nan nan nan nan nan nan nan nan nan nan nan nan nan nan nan
0.00 0.00 0.00 nan nan nan 0.00 0.00 0.00 0.00 0.00 0.00 0.00 0.00 0.00 0.00 0.00 0.00 0.01 0.00 0.00 0.00 0.00 0.00 0.00 0.00 0.00 nan nan nan nan nan nan nan nan nan nan nan
0.00 0.00 0.00 0.00 0.00 nan nan nan nan 0.00 0.00 0.04 0.00 0.00 0.00 0.00 0.00 0.00 0.00 0.00 0.01 0.00 0.00 0.02 0.00 0.00 0.00 0.00 nan nan nan nan nan nan nan nan nan nan
0.00 0.00 0.00 0.00 nan 0.00 nan nan nan nan 0.00 0.00 0.00 0.00 0.01 0.00 0.01 0.00 0.00 0.02 0.01 0.00 0.01 0.05 0.03 0.02 0.00 0.00 nan nan nan nan nan nan nan nan nan nan
0.00 0.00 0.00 0.00 0.00 0.00 0.00 0.00 0.00 0.00 0.00 0.00 0.00 0.00 0.00 0.00 0.00 0.00 0.01 0.01 0.01 0.00 0.00 0.22 0.07 0.09 0.04 0.00 nan nan nan nan nan nan nan nan nan nan
0.00 0.00 0.00 0.00 nan nan 0.00 0.00 0.00 0.00 nan nan nan nan nan nan nan 0.10 0.17 0.21 0.45 0.02 0.01 0.09 0.11 0.12 0.08 0.08 0.06 nan nan nan nan nan nan nan nan nan
0.00 0.00 nan 0.00 nan nan 0.02 0.02 0.03 0.00 0.00 0.00 0.00 0.00 nan nan nan 0.00 0.06 0.32 0.27 0.20 0.03 0.19 0.03 0.10 0.25 0.10 0.08 0.09 0.08 nan nan nan nan nan nan 0.01
0.09 0.07 0.05 nan nan nan nan 0.02 0.03 0.00 0.01 0.03 0.00 0.00 0.00 0.00 0.00 0.00 0.00 0.06 0.19 0.11 0.00 0.19 0.11 0.08 0.16 0.15 0.13 0.11 0.09 0.13 0.13 0.10 nan nan nan 0.01
0.07 0.10 0.11 nan nan nan 0.06 nan nan 0.05 0.49 0.44 0.34 0.22 0.18 0.16 0.01 0.02 0.00 0.00 0.00 0.03 0.02 0.01 0.34 0.12 0.13 0.18 0.15 0.11 0.12 0.15 0.15 0.18 0.20 nan nan nan
0.24 0.18 nan nan nan 0.08 nan nan 0.00 0.54 0.71 0.86 0.44 0.21 0.14 0.04 0.01 0.07 0.01 0.00 0.00 0.01 0.00 0.02 0.17 0.02 0.11 0.18 0.18 0.17 0.18 0.15 0.18 0.24 0.34 0.26 0.29 0.20
0.03 0.20 0.00 0.20 0.00 0.06 0.15 0.24 0.32 0.43 0.53 0.51 0.30 0.15 0.14 0.24 0.28 0.18 0.28 0.28 0.40 0.33 0.02 0.03 0.02 0.02 0.29 0.11 0.10 0.20 0.17 0.42 0.19 0.21 0.33 0.60 0.42 0.51
0.40 0.58 0.35 0.27 0.26 0.22 0.25 0.27 0.26 0.30 0.47 0.54 0.54 0.39 0.35 0.31 0.38 0.28 0.30 0.29 0.53 0.28 0.22 0.22 0.02 0.03 0.11 0.04 0.54 0.15 0.17 0.15 0.16 0.59 0.35 0.44 0.49 0.70
0.48 0.59 1.09 1.17 0.62 0.29 0.42 0.38 0.37 0.36 0.33 0.43 0.66 0.46 0.46 0.57 0.45 0.40 0.34 0.37 0.41 0.28 0.24 0.15 0.32 0.33 0.26 0.25 0.25 0.29 0.13 0.17 0.16 0.14 0.26 0.65 0.51 0.93
0.82 0.60 1.21 1.36 0.70 0.27 0.32 0.35 0.53 0.50 0.18 0.50 0.64 0.70 0.67 0.53 0.67 0.56 0.63 0.53 0.54 0.27 0.18 0.26 0.31 0.46 0.51 0.84 0.32 nan 0.50 0.20 0.43 0.49 0.30 0.50 0.84 0.61
0.34 0.56 0.78 0.79 0.38 0.28 0.28 0.35 0.44 0.71 0.73 0.58 0.85 1.16 1.30 0.90 0.92 0.60 0.52 0.76 0.49 0.26 0.21 0.12 0.19 0.25 0.53 1.35 1.81 0.96 nan 1.24 0.72 0.76 0.52 0.37 0.26 nan
0.38 0.33 0.66 0.47 0.49 0.41 1.18 1.39 1.82 1.69 1.75 2.25 1.42 1.39 2.63 0.72 0.85 0.62 0.66 0.60 0.55 0.22 0.22 0.20 0.19 0.00 0.22 0.54 2.93 1.20 0.91 nan 0.32 0.37 0.33 0.50 0.32 0.21
0.75 0.48 0.49 0.52 0.76 0.70 1.53 2.44 2.24 2.19 1.54 1.17 2.07 3.07 2.81 1.18 1.03 0.89 1.13 1.12 0.41 0.46 0.23 0.17 0.11 0.10 0.32 0.34 0.51 1.60 0.59 0.60 nan nan nan nan 0.56 0.74
1.31 0.58 0.87 1.13 1.00 1.18 0.68 1.33 0.62 2.84 1.11 1.15 1.09 1.12 5.26 1.56 0.81 0.88 1.01 0.69 0.46 0.46 0.30 0.29 0.16 0.13 0.21 0.18 0.29 0.64 0.42 0.91 0.38 0.36 0.80 nan nan nan
SL_Ratio
nan nan nan nan nan nan nan nan 3.6 4.6 4.2 nan nan nan nan nan nan nan nan nan nan nan nan nan nan nan nan nan nan nan nan nan nan nan nan nan nan nan
nan nan nan nan nan nan nan nan nan 3.5 4.4 nan nan nan nan nan nan nan nan nan nan nan nan nan nan nan nan nan nan nan nan nan nan nan nan nan nan nan
nan nan nan nan nan nan nan nan nan nan nan nan nan nan nan nan nan nan nan nan nan nan nan nan nan nan nan nan nan nan nan nan nan nan nan nan nan nan
nan nan nan nan nan nan nan nan nan nan nan nan nan nan nan nan nan nan nan nan nan nan nan nan nan nan nan nan nan nan nan nan nan nan nan nan nan nan
nan nan nan nan nan nan nan nan nan nan nan nan nan nan nan nan nan nan nan nan nan nan nan nan nan nan nan nan nan nan nan nan nan nan nan nan nan nan
nan nan nan nan nan nan nan nan nan nan nan nan nan nan nan nan nan nan nan nan nan nan nan nan nan nan nan nan nan nan nan nan nan nan nan nan nan nan
nan nan nan nan nan nan nan nan nan nan nan nan nan nan nan nan nan nan 4.8 nan nan nan nan nan nan nan nan nan nan nan nan nan nan nan nan nan nan nan
nan nan nan nan nan nan nan nan nan nan 5.0 5.1 nan nan nan nan nan 0.0 5.0 nan 5.4 0.0 nan 3.4 nan nan nan nan nan nan nan nan nan nan nan nan nan nan
nan nan nan nan nan nan nan nan nan nan nan 5.0 nan 6.0 5.6 nan 5.9 5.8 0.0 5.3 6.3 nan 3.6 3.4 2.9 2.8 2.5 nan nan nan nan nan nan nan nan nan nan nan
nan nan nan nan nan nan 5.0 nan nan nan nan nan nan nan nan nan nan 10.0 6.0 6.0 3.4 nan nan 4.5 3.0 3.3 3.0 2.5 nan nan nan nan nan nan nan nan nan nan
nan nan nan nan nan nan nan 4.0 nan nan nan nan nan nan nan nan nan 4.5 4.3 4.7 4.7 3.1 2.8 3.9 3.4 3.5 3.1 2.8 2.5 nan nan nan nan nan nan nan nan nan
nan nan nan nan nan nan 4.6 4.6 5.3 10.0 nan nan nan 5.5 nan nan nan nan 4.5 5.3 5.0 5.3 3.2 5.2 3.8 4.9 4.6 3.4 3.1 2.7 2.5 nan nan nan nan nan nan 2.6
4.0 3.9 3.8 nan nan nan nan 4.9 5.6 6.7 5.0 4.2 6.0 5.4 5.0 0.0 nan nan nan 4.1 4.8 4.8 nan 5.7 4.9 4.7 5.2 4.6 3.5 3.3 3.1 3.0 2.7 2.5 nan nan nan 2.5
4.4 4.1 4.2 nan nan nan 4.4 nan nan 4.4 4.5 4.8 4.7 4.6 4.4 4.4 5.8 4.6 nan nan nan 5.4 4.9 5.6 5.3 5.5 5.5 4.8 4.6 3.7 3.5 3.6 3.5 3.0 2.9 nan nan nan
4.2 4.3 nan nan nan 3.0 nan nan nan 4.7 4.9 5.6 5.2 4.9 4.4 4.4 4.5 4.1 4.5 4.5 nan 4.6 nan 4.4 4.4 4.7 4.3 4.9 5.1 4.3 4.3 3.7 3.7 3.8 3.7 3.7 4.0 3.5
4.3 4.3 nan 4.1 3.1 4.5 4.4 4.3 4.4 4.5 5.0 5.4 5.3 4.7 4.2 4.2 4.3 4.1 4.3 4.4 4.7 4.6 4.2 4.5 4.5 4.7 4.3 4.2 4.7 4.6 4.3 4.9 3.9 3.6 3.7 3.9 3.8 4.0
4.6 4.9 5.0 5.1 5.2 4.7 4.5 4.4 4.5 4.6 5.0 5.1 5.3 5.2 5.0 4.9 4.9 4.2 4.4 4.5 4.8 4.6 4.4 4.1 4.1 4.1 3.8 4.8 4.9 4.3 4.4 4.3 4.0 4.6 4.2 4.8 4.3 4.4
5.5 5.6 5.7 5.7 6.0 5.3 5.4 5.1 5.0 4.8 5.1 5.0 5.1 5.1 5.3 5.2 5.1 4.5 4.3 4.7 5.0 4.7 4.7 4.3 4.5 4.5 4.3 4.3 4.3 4.8 4.3 4.4 4.1 4.1 4.2 5.0 5.2 5.0
5.8 5.8 6.3 6.2 6.1 5.8 5.9 5.8 6.0 5.4 5.8 5.4 5.2 5.2 5.4 5.3 5.3 4.9 4.9 4.8 4.9 4.8 4.6 4.3 4.5 4.8 5.7 7.0 4.9 nan 4.8 4.3 4.5 4.5 4.2 4.8 5.3 5.1
5.5 6.1 6.3 6.3 6.2 6.2 6.2 6.5 6.2 5.9 5.9 5.6 5.4 5.7 6.0 5.8 5.4 5.5 5.2 5.9 5.2 4.9 4.6 4.2 4.3 4.4 6.0 7.1 5.9 5.1 nan 5.1 5.0 5.3 4.9 4.2 4.3 nan
6.2 6.3 6.3 6.3 6.5 6.4 6.5 6.7 6.8 6.6 6.3 6.3 5.7 5.8 5.7 5.6 5.5 5.2 5.5 4.8 4.4 5.0 5.1 4.9 4.6 nan 4.8 4.9 5.6 5.1 4.8 nan 4.6 4.9 4.8 4.9 4.7 4.5
6.9 7.1 6.6 6.4 6.7 6.9 6.8 7.0 6.7 6.5 6.7 6.6 6.7 6.1 6.0 6.2 6.6 6.6 6.4 6.2 5.4 5.4 5.3 4.9 4.5 4.3 4.5 5.3 5.7 5.2 4.9 4.7 nan nan nan nan 5.6 6.5
7.2 7.1 6.9 6.7 6.3 6.5 6.7 7.0 7.0 6.4 6.8 7.0 6.9 6.7 6.0 7.1 6.2 6.2 6.2 5.8 5.5 5.7 5.2 5.4 4.8 4.6 4.9 5.0 5.2 5.4 5.7 5.1 4.7 4.8 5.0 nan nan nan